Location: Unspecified
(74.3385°N, 0.0000°E)
Time: 19:00:58
(UTC+00:00)

Cosmos 1709 Rocket - Visible Passes

Search period start: 04 April 2026 00:00
Search period end: 14 April 2026 00:00
Orbit: 947 x 1001 km, 82.9° (Epoch: 29 March)

Date Brightness Start Highest point End Pass type
(mag) Time Alt. Az. Time Alt. Az. Time Alt. Az.
4 Apr 5.6 00:28:00 10° WNW 00:33:52 40° N 00:39:42 10° ENE visible
4 Apr 5.5 02:14:41 10° NW 02:20:37 42° NNE 02:26:29 10° E visible
4 Apr 4.4 21:19:59 10° SW 21:26:18 72° NW 21:32:32 10° NNE visible
4 Apr 5.3 23:06:29 10° W 23:12:31 46° NNW 23:18:29 10° NE visible
5 Apr 5.6 00:53:21 10° WNW 00:59:12 39° N 01:04:59 10° ENE visible
5 Apr 5.3 02:39:53 10° NW 02:45:53 46° NNE 02:51:49 10° E visible
5 Apr 4.7 21:45:09 10° SW 21:51:23 61° NW 21:57:33 10° NE visible
5 Apr 5.4 23:31:51 10° W 23:37:47 42° NNW 23:43:39 10° NE visible
6 Apr 5.6 01:18:40 10° WNW 01:24:32 40° N 01:30:19 10° ENE visible
6 Apr 5.0 22:10:24 10° WSW 22:16:33 53° NW 22:22:37 10° NE visible
6 Apr 5.6 23:57:14 10° W 00:03:06 40° N 00:08:54 10° ENE visible
7 Apr 5.5 01:43:57 10° NW 01:49:50 41° NNE 01:55:40 10° E visible
7 Apr 5.2 22:35:43 10° WSW 22:41:45 47° NNW 22:47:44 10° NE visible
8 Apr 5.6 00:22:35 10° WNW 00:28:25 39° N 00:34:11 10° ENE visible
8 Apr 5.4 02:09:09 10° NW 02:15:07 45° NNE 02:21:01 10° E visible
8 Apr 5.4 23:01:04 10° W 23:07:01 43° NNW 23:12:54 10° NE visible
9 Apr 5.6 00:47:55 10° WNW 00:53:44 39° N 00:59:30 10° ENE visible
9 Apr 5.6 23:26:27 10° W 23:32:18 40° NNW 23:38:06 10° ENE visible
10 Apr 5.6 01:13:12 10° NW 01:19:03 41° NNE 01:24:51 10° E visible
10 Apr 5.7 23:51:49 10° WNW 23:57:37 39° N 00:03:22 10° ENE visible
11 Apr 5.4 22:30:17 10° W 22:36:14 44° NNW 22:42:07 10° NE visible
12 Apr 5.7 00:17:09 10° WNW 00:22:57 39° N 00:28:41 10° ENE visible
12 Apr 5.6 22:55:39 10° W 23:01:31 41° NNW 23:07:19 10° NE visible
13 Apr 5.6 00:42:26 10° WNW 00:48:15 40° NNE 00:54:02 10° E visible
13 Apr 5.7 23:21:01 10° WNW 23:26:49 39° N 23:32:34 10° ENE visible
